TimeMDT,TemperatureF,Dew PointF,Humidity,Sea Level PressureIn,VisibilityMPH,Wind Direction,Wind SpeedMPH,Gust SpeedMPH,PrecipitationIn,Events,Conditions,WindDirDegrees,DateUTC
12:53 AM,72.0,53.1,51,29.86,10.0,South,11.5,-,N/A,,Clear,180,2013-08-24 06:53:00
1:53 AM,70.0,53.1,55,29.85,10.0,South,11.5,-,N/A,,Clear,180,2013-08-24 07:53:00
2:53 AM,70.0,54.0,57,29.84,10.0,South,12.7,-,N/A,,Clear,180,2013-08-24 08:53:00
3:53 AM,66.9,54.0,63,29.85,10.0,South,11.5,-,N/A,,Clear,180,2013-08-24 09:53:00
4:53 AM,66.0,54.0,65,29.85,10.0,South,11.5,-,N/A,,Clear,170,2013-08-24 10:53:00
5:53 AM,64.9,54.0,68,29.86,10.0,South,11.5,-,N/A,,Clear,170,2013-08-24 11:53:00
6:53 AM,66.0,54.0,65,29.88,10.0,South,11.5,-,N/A,,Clear,170,2013-08-24 12:53:00
7:53 AM,72.0,55.0,55,29.89,10.0,South,12.7,-,N/A,,Clear,190,2013-08-24 13:53:00
8:53 AM,79.0,55.0,44,29.89,10.0,SSW,20.7,24.2,N/A,,Clear,200,2013-08-24 14:53:00
9:53 AM,82.9,54.0,37,29.88,10.0,SSW,18.4,27.6,N/A,,Clear,200,2013-08-24 15:53:00
10:53 AM,86.0,53.1,32,29.88,10.0,SSW,15.0,27.6,N/A,,Clear,200,2013-08-24 16:53:00
11:53 AM,89.1,54.0,30,29.87,10.0,SSW,18.4,29.9,N/A,,Clear,200,2013-08-24 17:53:00
12:53 PM,93.0,50.0,23,29.86,10.0,SSW,17.3,29.9,N/A,,Clear,210,2013-08-24 18:53:00
1:53 PM,93.9,48.0,21,29.84,10.0,South,15.0,25.3,N/A,,Clear,170,2013-08-24 19:53:00
2:53 PM,96.1,48.0,19,29.82,10.0,South,20.7,26.5,N/A,,Clear,180,2013-08-24 20:53:00
3:53 PM,95.0,46.9,19,29.82,10.0,SSW,12.7,19.6,N/A,,Partly Cloudy,210,2013-08-24 21:53:00
4:53 PM,93.9,48.9,21,29.82,10.0,South,19.6,32.2,N/A,,Partly Cloudy,180,2013-08-24 22:53:00
5:53 PM,91.9,48.0,22,29.82,10.0,South,23.0,32.2,N/A,,Clear,180,2013-08-24 23:53:00
6:53 PM,88.0,48.0,25,29.84,10.0,South,17.3,-,N/A,,Clear,180,2013-08-25 00:53:00
7:53 PM,82.9,48.9,31,29.86,10.0,South,13.8,-,N/A,,Clear,170,2013-08-25 01:53:00
8:53 PM,80.1,52.0,38,29.88,10.0,South,16.1,23.0,N/A,,Clear,170,2013-08-25 02:53:00
9:53 PM,79.0,55.0,44,29.89,10.0,South,19.6,26.5,N/A,,Clear,170,2013-08-25 03:53:00
10:53 PM,78.1,55.0,45,29.91,10.0,South,17.3,25.3,N/A,,Clear,180,2013-08-25 04:53:00
11:53 PM,77.0,55.0,47,29.92,10.0,South,17.3,25.3,N/A,,Clear,190,2013-08-25 05:53:00